Date String (YYYY-MM-DD hh:mm:ss) UTC,Instrument flags,Ambient pressure (hPa),Sample flow (lpm),Bypass flow (lpm),Sample temperature (°C),Ambient temperature (°C),ASC tube jacket temperature (°C),LED temperature (°C),Box temperature (°C),Sample RH (%),Span deviation,Mass concentration (μg/m³),Mass concentration (μg/m³),Mass concentration (μg/m³)
DateTimeUTC,F1_M11,P_M11,Q1_M11,Q2_M11,T1_M11,T2_M11,T3_M11,T4_M11,T5_M11,U1_M11,ZSPAN_M11,X0_M11,X2_M11,X1_M11
2023-03-07 19:00:00,,0825.5,4.98,0.00,22.5,21.5,00.0,31.1,24.2,15.3,0000.0,0007.89,0005.66,0005.44
2023-03-07 19:01:00,,0825.4,5.00,0.00,22.4,21.2,00.0,31.1,24.1,15.2,0000.0,0007.95,0005.67,0005.45
2023-03-07 19:02:00,,0825.4,4.99,0.00,22.4,21.0,00.0,31.1,24.0,14.6,0000.0,0007.88,0005.64,0005.45
2023-03-07 19:03:00,,0825.5,5.00,0.00,22.4,20.8,00.0,31.1,24.0,14.8,0000.0,0007.90,0005.64,0005.45
2023-03-07 19:04:00,,0825.4,5.00,0.00,22.3,20.7,00.0,31.1,23.9,15.1,0000.0,0007.90,0005.67,0005.45
2023-03-07 19:05:00,,0825.5,5.00,0.00,22.3,20.6,00.0,31.1,23.9,15.0,0000.0,0007.88,0005.67,0005.46
2023-03-07 19:06:00,,0825.4,4.99,0.00,22.3,20.6,00.0,31.1,23.9,14.9,0000.0,0007.83,0005.67,0005.47
2023-03-07 19:07:00,,0825.4,5.01,0.00,22.3,20.6,00.0,31.1,23.9,15.0,0000.0,0007.80,0005.67,0005.47
2023-03-07 19:08:00,,0825.4,5.00,0.00,22.3,20.6,00.0,31.1,23.9,15.2,0000.0,0007.93,0005.71,0005.49
2023-03-07 19:09:00,,0825.3,5.01,0.00,22.3,20.6,00.0,31.1,23.9,14.6,0000.0,0008.06,0005.72,0005.48
2023-03-07 19:10:00,,0825.3,5.01,0.00,22.2,20.5,00.0,31.1,23.9,14.4,0000.0,0008.38,0005.71,0005.47
2023-03-07 19:11:00,,0825.4,4.99,0.00,22.2,20.6,00.0,31.1,23.9,14.7,0000.0,0008.33,0005.68,0005.45
2023-03-07 19:12:00,,0825.3,4.99,0.00,22.2,20.5,00.0,31.0,23.9,14.6,0000.0,0008.24,0005.66,0005.43
2023-03-07 19:13:00,,0825.4,5.00,0.00,22.2,20.9,00.0,31.0,24.0,14.3,-000.6,0008.29,0005.67,0005.42
2023-03-07 19:14:00,,0825.4,5.00,0.00,22.3,22.2,00.0,31.0,24.3,14.5,-002.1,0008.64,0005.69,0005.42
2023-03-07 19:15:00,,0825.4,5.04,0.00,22.5,23.0,00.0,31.1,24.4,14.3,-001.8,0008.77,0005.66,0005.41
2023-03-07 19:16:00,,0825.3,5.02,0.00,22.5,22.6,00.0,31.1,24.4,14.3,-002.4,0008.77,0005.66,0005.39
2023-03-07 19:17:00,,0825.3,4.98,0.00,22.5,22.2,00.0,31.1,24.4,13.7,-000.4,0008.80,0005.65,0005.37
2023-03-07 19:18:00,,0825.3,4.99,0.00,22.5,21.8,00.0,31.1,24.2,13.3,-001.0,0008.87,0005.64,0005.34
2023-03-07 19:19:00,,0825.3,5.01,0.00,22.5,21.5,00.0,31.2,24.2,13.7,-000.9,0008.84,0005.62,0005.34
2023-03-07 19:20:00,,0825.3,5.00,0.00,22.5,21.3,00.0,31.2,24.2,13.7,-001.6,0008.85,0005.63,0005.35
2023-03-07 19:21:00,,0825.3,5.01,0.00,22.5,21.1,00.0,31.2,24.2,14.3,-002.5,0008.51,0005.65,0005.36
2023-03-07 19:22:00,,0825.2,5.00,0.00,22.5,20.9,00.0,31.2,24.1,14.7,-000.3,0008.54,0005.67,0005.37
2023-03-07 19:23:00,,0825.2,5.01,0.00,22.4,20.8,00.0,31.2,24.0,14.0,0000.0,0008.55,0005.68,0005.38
2023-03-07 19:24:00,,0825.1,5.00,0.00,22.4,20.7,00.0,31.1,24.0,13.7,0000.0,0008.59,0005.69,0005.38
2023-03-07 19:25:00,,0825.1,5.01,0.00,22.4,20.6,00.0,31.1,23.9,14.2,0000.0,0008.40,0005.68,0005.39
2023-03-07 19:26:00,,0825.1,5.00,0.00,22.3,20.5,00.0,31.1,23.9,13.7,0000.0,0008.05,0005.69,0005.40
2023-03-07 19:27:00,,0825.2,5.00,0.00,22.3,20.5,00.0,31.1,23.9,12.5,0000.0,0008.06,0005.68,0005.39
2023-03-07 19:28:00,,0825.2,5.00,0.00,22.3,20.4,00.0,31.1,23.9,12.6,0000.0,0008.03,0005.67,0005.39
2023-03-07 19:29:00,,0825.2,5.00,0.00,22.3,20.4,00.0,31.1,23.9,13.1,0000.0,0008.01,0005.68,0005.41
2023-03-07 19:30:00,,0825.1,5.00,0.00,22.2,20.4,00.0,31.1,23.8,13.2,0000.0,0007.95,0005.65,0005.41
2023-03-07 19:31:00,,0825.1,4.99,0.00,22.2,20.4,00.0,31.1,23.8,12.9,0000.0,0007.92,0005.62,0005.38
2023-03-07 19:32:00,,0824.9,5.01,0.00,22.2,21.2,00.0,31.0,24.0,12.6,0000.0,0007.85,0005.57,0005.36
2023-03-07 19:33:00,,0824.9,5.03,0.00,22.3,22.4,00.0,31.0,24.3,12.3,0000.0,0007.78,0005.54,0005.34
2023-03-07 19:34:00,,0825.0,5.01,0.00,22.5,22.7,00.0,31.1,24.4,12.3,0000.0,0007.82,0005.55,0005.33
2023-03-07 19:35:00,,0824.9,4.98,0.00,22.5,22.3,00.0,31.1,24.4,12.2,0000.0,0007.77,0005.53,0005.31
2023-03-07 19:36:00,,0824.9,4.98,0.00,22.5,22.0,00.0,31.1,24.3,12.0,0000.0,0007.86,0005.52,0005.28
2023-03-07 19:37:00,,0824.9,5.04,0.00,22.5,21.7,00.0,31.1,24.2,12.2,0000.0,0007.92,0005.52,0005.25
2023-03-07 19:38:00,,0825.0,5.01,0.00,22.5,21.4,00.0,31.2,24.2,12.3,0000.0,0007.96,0005.53,0005.25
2023-03-07 19:39:00,,0825.0,5.00,0.00,22.4,21.1,00.0,31.2,24.1,12.4,0000.0,0008.00,0005.53,0005.24
2023-03-07 19:40:00,,0825.0,5.00,0.00,22.4,20.9,00.0,31.2,24.1,12.1,0000.0,0008.05,0005.52,0005.23
2023-03-07 19:41:00,,0824.9,5.02,0.00,22.4,20.7,00.0,31.2,24.0,12.5,0000.0,0008.12,0005.52,0005.23
2023-03-07 19:42:00,,0824.9,5.01,0.00,22.4,20.6,00.0,31.1,24.0,12.4,0000.0,0008.20,0005.55,0005.23
2023-03-07 19:43:00,,0824.9,5.00,0.00,22.3,20.5,00.0,31.1,23.9,12.8,0000.0,0008.27,0005.58,0005.23
2023-03-07 19:44:00,,0824.8,5.00,0.00,22.3,20.4,00.0,31.1,23.9,12.5,0000.0,0008.37,0005.63,0005.25
2023-03-07 19:45:00,,0824.8,5.00,0.00,22.3,20.3,00.0,31.1,23.9,12.5,0000.0,0008.34,0005.62,0005.25
2023-03-07 19:46:00,,0824.7,5.01,0.00,22.2,20.2,00.0,31.1,23.8,12.3,0000.0,0008.32,0005.61,0005.26
2023-03-07 19:47:00,,0824.8,5.00,0.00,22.2,20.1,00.0,31.1,23.7,13.8,0000.0,0008.42,0005.63,0005.27
2023-03-07 19:48:00,,0824.8,5.00,0.00,22.1,20.0,00.0,31.0,23.6,13.4,0000.0,0008.41,0005.62,0005.28
2023-03-07 19:49:00,,0824.9,5.00,0.00,22.1,20.2,00.0,31.0,23.6,12.8,0000.0,0008.39,0005.62,0005.30
2023-03-07 19:50:00,,0824.9,4.95,0.00,22.1,21.4,00.0,31.0,23.9,13.3,0000.0,0008.47,0005.63,0005.30
2023-03-07 19:51:00,,0824.9,4.98,0.00,22.3,22.6,00.0,31.0,24.2,12.3,0000.0,0008.38,0005.61,0005.29
2023-03-07 19:52:00,,0824.8,4.98,0.00,22.4,22.9,00.0,31.0,24.3,12.4,0000.0,0008.26,0005.60,0005.30
2023-03-07 19:53:00,,0824.7,4.98,0.00,22.4,22.2,00.0,31.0,24.2,12.3,0000.0,0008.23,0005.60,0005.31
2023-03-07 19:54:00,,0824.7,5.00,0.00,22.4,21.7,00.0,31.1,24.1,12.5,0000.0,0008.18,0005.61,0005.32
2023-03-07 19:55:00,,0824.7,5.01,0.00,22.3,21.4,00.0,31.1,24.0,12.3,-000.1,0008.11,0005.58,0005.32
2023-03-07 19:56:00,,0824.7,5.00,0.00,22.3,21.0,00.0,31.1,23.9,12.2,0000.0,0008.13,0005.58,0005.33
2023-03-07 19:57:00,,0824.7,4.99,0.00,22.3,20.8,00.0,31.1,23.9,12.3,0000.0,0008.25,0005.62,0005.35
2023-03-07 19:58:00,,0824.6,5.00,0.00,22.2,20.7,00.0,31.1,23.9,12.8,0000.0,0008.15,0005.62,0005.36
2023-03-07 19:59:00,,0824.7,5.01,0.00,22.2,20.6,00.0,31.1,23.9,13.4,0000.0,0008.02,0005.61,0005.36
